Time,TemperatureF,DewpointF,PressureIn,WindDirection,WindDirectionDegrees,WindSpeedMPH,WindSpeedGustMPH,Humidity,HourlyPrecipIn,Conditions,Clouds,dailyrainin,SolarRadiationWatts/m^2,SoftwareType,DateUTC
2013-07-31 00:03:00,58.3,54.1,30.09,SSW,205,2.0,2.0,86,0.00,,,0.00,0,Wunderground v.1.15,2013-07-31 07:03:00,
2013-07-31 00:08:00,58.1,53.9,30.09,SSW,205,1.0,2.0,86,0.00,,,0.00,0,Wunderground v.1.15,2013-07-31 07:08:00,
2013-07-31 00:14:00,58.1,53.9,30.09,SSW,205,2.0,2.0,86,0.00,,,0.00,0,Wunderground v.1.15,2013-07-31 07:14:00,
2013-07-31 00:19:00,58.1,53.9,30.09,SSW,205,0.0,2.0,86,0.00,,,0.00,0,Wunderground v.1.15,2013-07-31 07:19:00,
2013-07-31 00:24:00,58.1,53.9,30.09,SSW,205,2.0,2.0,86,0.00,,,0.00,0,Wunderground v.1.15,2013-07-31 07:24:00,
2013-07-31 00:29:00,58.0,53.8,30.09,SSW,205,1.0,2.0,86,0.00,,,0.00,0,Wunderground v.1.15,2013-07-31 07:29:00,
2013-07-31 00:34:00,58.0,54.2,30.10,SSW,205,1.0,2.0,87,0.00,,,0.00,0,Wunderground v.1.15,2013-07-31 07:34:00,
2013-07-31 00:39:00,57.8,54.0,30.10,SSW,205,2.0,2.0,87,0.00,,,0.00,0,Wunderground v.1.15,2013-07-31 07:39:00,
2013-07-31 00:44:00,57.8,54.0,30.10,SSW,205,1.0,2.0,87,0.00,,,0.00,0,Wunderground v.1.15,2013-07-31 07:44:00,
2013-07-31 00:49:00,57.6,53.8,30.10,SSW,205,2.0,3.0,87,0.00,,,0.00,0,Wunderground v.1.15,2013-07-31 07:49:00,
2013-07-31 00:54:00,57.6,53.8,30.10,SSW,205,2.0,2.0,87,0.00,,,0.00,0,Wunderground v.1.15,2013-07-31 07:54:00,
2013-07-31 00:59:00,57.5,53.7,30.10,SSW,205,2.0,2.0,87,0.00,,,0.00,0,Wunderground v.1.15,2013-07-31 07:59:00,
2013-07-31 01:04:00,57.5,53.7,30.10,SSW,205,2.0,2.0,87,0.00,,,0.00,0,Wunderground v.1.15,2013-07-31 08:04:00,
2013-07-31 01:10:00,57.5,53.7,30.10,SSW,205,2.0,2.0,87,0.00,,,0.00,0,Wunderground v.1.15,2013-07-31 08:10:00,
2013-07-31 01:15:00,57.3,53.8,30.10,SSW,205,1.0,2.0,88,0.00,,,0.00,0,Wunderground v.1.15,2013-07-31 08:15:00,
2013-07-31 01:20:00,57.3,53.8,30.10,SSW,205,0.0,1.0,88,0.00,,,0.00,0,Wunderground v.1.15,2013-07-31 08:20:00,
2013-07-31 01:25:00,57.3,53.8,30.10,SSW,205,1.0,2.0,88,0.00,,,0.00,0,Wunderground v.1.15,2013-07-31 08:25:00,
2013-07-31 01:31:00,57.2,53.7,30.10,SSW,205,0.0,0.0,88,0.00,,,0.00,0,Wunderground v.1.15,2013-07-31 08:31:00,
2013-07-31 01:37:00,57.2,53.7,30.10,SSW,205,0.0,1.0,88,0.00,,,0.00,0,Wunderground v.1.15,2013-07-31 08:37:00,
2013-07-31 01:42:00,57.2,53.7,30.10,SSW,205,0.0,0.0,88,0.00,,,0.00,0,Wunderground v.1.15,2013-07-31 08:42:00,
2013-07-31 01:47:00,57.0,53.5,30.10,SSW,205,0.0,0.0,88,0.00,,,0.00,0,Wunderground v.1.15,2013-07-31 08:47:00,
2013-07-31 01:52:00,57.0,53.5,30.10,SSW,205,1.0,1.0,88,0.00,,,0.00,0,Wunderground v.1.15,2013-07-31 08:52:00,
2013-07-31 01:57:00,56.9,53.4,30.10,SSW,205,0.0,1.0,88,0.00,,,0.00,0,Wunderground v.1.15,2013-07-31 08:57:00,
2013-07-31 02:02:00,56.9,53.4,30.10,SSW,205,1.0,1.0,88,0.00,,,0.00,0,Wunderground v.1.15,2013-07-31 09:02:00,
2013-07-31 02:07:00,56.9,53.7,30.10,SSW,205,0.0,1.0,89,0.00,,,0.00,0,Wunderground v.1.15,2013-07-31 09:07:00,
2013-07-31 02:12:00,56.7,53.5,30.10,SSW,205,1.0,1.0,89,0.00,,,0.00,0,Wunderground v.1.15,2013-07-31 09:12:00,
2013-07-31 02:17:00,56.7,53.5,30.10,SSW,205,1.0,2.0,89,0.00,,,0.00,0,Wunderground v.1.15,2013-07-31 09:17:00,
2013-07-31 02:22:00,56.6,53.4,30.10,SSW,205,0.0,1.0,89,0.00,,,0.00,0,Wunderground v.1.15,2013-07-31 09:22:00,
2013-07-31 02:27:00,56.6,53.4,30.10,SSW,205,0.0,1.0,89,0.00,,,0.00,0,Wunderground v.1.15,2013-07-31 09:27:00,
2013-07-31 02:32:00,56.6,53.4,30.10,SSW,205,0.0,1.0,89,0.00,,,0.00,0,Wunderground v.1.15,2013-07-31 09:32:00,
2013-07-31 02:37:00,56.5,53.3,30.10,SSW,205,1.0,2.0,89,0.00,,,0.00,0,Wunderground v.1.15,2013-07-31 09:37:00,
2013-07-31 02:42:00,56.5,53.3,30.10,SSW,205,0.0,0.0,89,0.00,,,0.00,0,Wunderground v.1.15,2013-07-31 09:42:00,
2013-07-31 02:47:00,56.3,53.4,30.10,SSW,205,0.0,0.0,90,0.00,,,0.00,0,Wunderground v.1.15,2013-07-31 09:47:00,
2013-07-31 02:52:00,56.3,53.4,30.10,SSW,205,0.0,0.0,90,0.00,,,0.00,0,Wunderground v.1.15,2013-07-31 09:52:00,
2013-07-31 02:57:00,56.2,53.3,30.10,SSW,205,0.0,0.0,90,0.00,,,0.00,0,Wunderground v.1.15,2013-07-31 09:57:00,
2013-07-31 03:02:00,56.0,53.1,30.10,SSW,205,0.0,0.0,90,0.00,,,0.00,0,Wunderground v.1.15,2013-07-31 10:02:00,
2013-07-31 03:07:00,56.0,53.1,30.10,SSW,205,0.0,0.0,90,0.00,,,0.00,0,Wunderground v.1.15,2013-07-31 10:07:00,
2013-07-31 03:12:00,55.9,53.0,30.10,SSW,205,0.0,1.0,90,0.00,,,0.00,0,Wunderground v.1.15,2013-07-31 10:12:00,
2013-07-31 03:17:00,55.9,53.0,30.10,SSW,205,0.0,1.0,90,0.00,,,0.00,0,Wunderground v.1.15,2013-07-31 10:17:00,
2013-07-31 03:22:00,55.7,52.8,30.10,SSW,205,0.0,0.0,90,0.00,,,0.00,0,Wunderground v.1.15,2013-07-31 10:22:00,
2013-07-31 03:27:00,55.7,52.8,30.10,SSW,205,0.0,1.0,90,0.00,,,0.00,0,Wunderground v.1.15,2013-07-31 10:27:00,
2013-07-31 03:32:00,55.7,52.8,30.10,SSW,205,0.0,1.0,90,0.00,,,0.00,0,Wunderground v.1.15,2013-07-31 10:32:00,
2013-07-31 03:37:00,55.6,52.7,30.10,SSW,205,0.0,1.0,90,0.00,,,0.00,0,Wunderground v.1.15,2013-07-31 10:37:00,
2013-07-31 03:42:00,55.6,53.0,30.10,SSW,205,0.0,1.0,91,0.00,,,0.00,0,Wunderground v.1.15,2013-07-31 10:42:00,
2013-07-31 03:47:00,55.6,53.0,30.10,SSW,205,0.0,1.0,91,0.00,,,0.00,0,Wunderground v.1.15,2013-07-31 10:47:00,
2013-07-31 03:52:00,55.4,52.8,30.10,SSW,205,0.0,0.0,91,0.00,,,0.00,0,Wunderground v.1.15,2013-07-31 10:52:00,
2013-07-31 03:57:00,55.4,52.8,30.10,SSW,205,0.0,0.0,91,0.00,,,0.00,0,Wunderground v.1.15,2013-07-31 10:57:00,
2013-07-31 04:02:00,55.3,52.7,30.10,SSW,205,0.0,0.0,91,0.00,,,0.00,0,Wunderground v.1.15,2013-07-31 11:02:00,
2013-07-31 04:07:00,55.3,52.7,30.10,SSW,205,0.0,0.0,91,0.00,,,0.00,0,Wunderground v.1.15,2013-07-31 11:07:00,
2013-07-31 04:12:00,55.3,52.7,30.10,SSW,205,0.0,1.0,91,0.00,,,0.00,0,Wunderground v.1.15,2013-07-31 11:12:00,
2013-07-31 04:17:00,55.1,52.8,30.10,SSW,205,0.0,1.0,92,0.00,,,0.00,0,Wunderground v.1.15,2013-07-31 11:17:00,
2013-07-31 04:22:00,55.1,52.8,30.10,SSW,205,1.0,1.0,92,0.00,,,0.00,0,Wunderground v.1.15,2013-07-31 11:22:00,
2013-07-31 04:27:00,55.0,52.7,30.10,SSW,205,1.0,2.0,92,0.00,,,0.00,0,Wunderground v.1.15,2013-07-31 11:27:00,
2013-07-31 04:32:00,55.0,52.7,30.10,SSW,205,0.0,1.0,92,0.00,,,0.00,0,Wunderground v.1.15,2013-07-31 11:32:00,
2013-07-31 04:37:00,54.8,52.5,30.10,SSW,205,0.0,1.0,92,0.00,,,0.00,0,Wunderground v.1.15,2013-07-31 11:37:00,
2013-07-31 04:42:00,54.8,52.5,30.10,SSW,205,1.0,1.0,92,0.00,,,0.00,0,Wunderground v.1.15,2013-07-31 11:42:00,
2013-07-31 04:47:00,54.7,52.4,30.10,SSW,205,0.0,1.0,92,0.00,,,0.00,0,Wunderground v.1.15,2013-07-31 11:47:00,
2013-07-31 04:52:00,54.7,52.4,30.10,SSW,205,0.0,1.0,92,0.00,,,0.00,0,Wunderground v.1.15,2013-07-31 11:52:00,
2013-07-31 04:57:00,54.7,52.4,30.10,SSW,205,0.0,1.0,92,0.00,,,0.00,0,Wunderground v.1.15,2013-07-31 11:57:00,
2013-07-31 05:02:00,54.5,52.2,30.10,SSW,205,0.0,0.0,92,0.00,,,0.00,0,Wunderground v.1.15,2013-07-31 12:02:00,
2013-07-31 05:07:00,54.7,52.7,30.10,SSW,205,0.0,1.0,93,0.00,,,0.00,0,Wunderground v.1.15,2013-07-31 12:07:00,
2013-07-31 05:12:00,54.7,52.7,30.10,SSW,205,0.0,0.0,93,0.00,,,0.00,0,Wunderground v.1.15,2013-07-31 12:12:00,
2013-07-31 05:17:00,54.7,52.7,30.10,SSW,205,0.0,0.0,93,0.00,,,0.00,0,Wunderground v.1.15,2013-07-31 12:17:00,
2013-07-31 05:22:00,54.7,52.7,30.10,SSW,205,0.0,0.0,93,0.00,,,0.00,0,Wunderground v.1.15,2013-07-31 12:22:00,
2013-07-31 05:27:00,54.8,52.8,30.10,SSW,205,0.0,0.0,93,0.00,,,0.00,0,Wunderground v.1.15,2013-07-31 12:27:00,
2013-07-31 05:32:00,54.8,52.8,30.10,SSW,205,0.0,0.0,93,0.00,,,0.00,0,Wunderground v.1.15,2013-07-31 12:32:00,
2013-07-31 05:37:00,55.0,53.0,30.10,SSW,205,0.0,0.0,93,0.00,,,0.00,0,Wunderground v.1.15,2013-07-31 12:37:00,
2013-07-31 05:42:00,55.0,53.0,30.10,SSW,205,0.0,0.0,93,0.00,,,0.00,0,Wunderground v.1.15,2013-07-31 12:42:00,
2013-07-31 05:47:00,55.1,53.1,30.10,SSW,205,0.0,0.0,93,0.00,,,0.00,0,Wunderground v.1.15,2013-07-31 12:47:00,
2013-07-31 05:53:00,55.1,53.1,30.10,SSW,205,0.0,0.0,93,0.00,,,0.00,0,Wunderground v.1.15,2013-07-31 12:53:00,
2013-07-31 05:58:00,55.3,53.6,30.10,SSW,205,0.0,0.0,94,0.00,,,0.00,0,Wunderground v.1.15,2013-07-31 12:58:00,
2013-07-31 06:03:00,55.4,53.7,30.10,SSW,205,0.0,0.0,94,0.00,,,0.00,0,Wunderground v.1.15,2013-07-31 13:03:00,
2013-07-31 06:08:00,55.6,53.9,30.10,SSW,205,0.0,0.0,94,0.00,,,0.00,0,Wunderground v.1.15,2013-07-31 13:08:00,
2013-07-31 06:13:00,55.6,53.9,30.10,SSW,205,0.0,0.0,94,0.00,,,0.00,0,Wunderground v.1.15,2013-07-31 13:13:00,
2013-07-31 06:18:00,55.7,54.0,30.11,SSW,205,0.0,1.0,94,0.00,,,0.00,5,Wunderground v.1.15,2013-07-31 13:18:00,
2013-07-31 06:23:00,55.9,54.2,30.11,SSW,205,0.0,0.0,94,0.00,,,0.00,5,Wunderground v.1.15,2013-07-31 13:23:00,
2013-07-31 06:28:00,55.9,54.2,30.11,SSW,205,0.0,0.0,94,0.00,,,0.00,7,Wunderground v.1.15,2013-07-31 13:28:00,
2013-07-31 06:33:00,55.9,54.2,30.10,SSW,205,0.0,0.0,94,0.00,,,0.00,11,Wunderground v.1.15,2013-07-31 13:33:00,
2013-07-31 06:38:00,56.0,54.3,30.10,SSW,205,1.0,1.0,94,0.00,,,0.00,11,Wunderground v.1.15,2013-07-31 13:38:00,
2013-07-31 06:43:00,56.0,54.3,30.10,SSW,205,0.0,1.0,94,0.00,,,0.00,14,Wunderground v.1.15,2013-07-31 13:43:00,
2013-07-31 06:48:00,56.0,54.3,30.10,SSW,205,0.0,1.0,94,0.00,,,0.00,16,Wunderground v.1.15,2013-07-31 13:48:00,
2013-07-31 06:53:00,55.9,54.2,30.10,SSW,205,0.0,0.0,94,0.00,,,0.00,18,Wunderground v.1.15,2013-07-31 13:53:00,
2013-07-31 06:58:00,55.9,54.2,30.10,SSW,205,0.0,1.0,94,0.00,,,0.00,23,Wunderground v.1.15,2013-07-31 13:58:00,
2013-07-31 07:03:00,55.9,54.2,30.10,SSW,205,1.0,1.0,94,0.00,,,0.00,25,Wunderground v.1.15,2013-07-31 14:03:00,
2013-07-31 07:08:00,55.9,54.2,30.10,SSW,205,0.0,1.0,94,0.00,,,0.00,28,Wunderground v.1.15,2013-07-31 14:08:00,
2013-07-31 07:13:00,56.0,54.3,30.10,SSW,205,0.0,1.0,94,0.00,,,0.00,30,Wunderground v.1.15,2013-07-31 14:13:00,
2013-07-31 07:18:00,56.0,54.3,30.11,SSW,205,0.0,1.0,94,0.00,,,0.00,30,Wunderground v.1.15,2013-07-31 14:18:00,
2013-07-31 07:23:00,56.0,54.3,30.11,SSW,205,0.0,0.0,94,0.00,,,0.00,30,Wunderground v.1.15,2013-07-31 14:23:00,
2013-07-31 07:28:00,56.0,54.3,30.11,SSW,205,0.0,1.0,94,0.00,,,0.00,28,Wunderground v.1.15,2013-07-31 14:28:00,
2013-07-31 07:33:00,56.0,54.3,30.11,SSW,205,0.0,0.0,94,0.00,,,0.00,32,Wunderground v.1.15,2013-07-31 14:33:00,
2013-07-31 07:38:00,56.0,54.3,30.11,SSW,205,0.0,1.0,94,0.00,,,0.00,42,Wunderground v.1.15,2013-07-31 14:38:00,
2013-07-31 07:43:00,56.0,54.3,30.11,SSW,205,0.0,1.0,94,0.00,,,0.00,39,Wunderground v.1.15,2013-07-31 14:43:00,
2013-07-31 07:48:00,56.2,54.5,30.11,SSW,205,0.0,1.0,94,0.00,,,0.00,44,Wunderground v.1.15,2013-07-31 14:48:00,
2013-07-31 07:53:00,56.2,54.5,30.11,SSW,205,0.0,1.0,94,0.00,,,0.00,63,Wunderground v.1.15,2013-07-31 14:53:00,
2013-07-31 07:58:00,56.3,54.6,30.11,SSW,205,0.0,1.0,94,0.00,,,0.00,65,Wunderground v.1.15,2013-07-31 14:58:00,
2013-07-31 08:03:00,56.3,54.9,30.11,SSW,205,0.0,1.0,95,0.00,,,0.00,72,Wunderground v.1.15,2013-07-31 15:03:00,
2013-07-31 08:08:00,56.3,54.9,30.11,SSW,205,1.0,2.0,95,0.00,,,0.00,67,Wunderground v.1.15,2013-07-31 15:08:00,
2013-07-31 08:13:00,56.5,55.1,30.11,SSW,205,0.0,2.0,95,0.00,,,0.00,76,Wunderground v.1.15,2013-07-31 15:13:00,
2013-07-31 08:18:00,56.5,55.1,30.11,SSW,205,0.0,2.0,95,0.00,,,0.00,56,Wunderground v.1.15,2013-07-31 15:18:00,
2013-07-31 08:23:00,56.5,55.1,30.11,SSW,205,0.0,0.0,95,0.00,,,0.00,46,Wunderground v.1.15,2013-07-31 15:23:00,
2013-07-31 08:28:00,56.6,55.2,30.11,SSW,205,0.0,1.0,95,0.00,,,0.00,65,Wunderground v.1.15,2013-07-31 15:28:00,
2013-07-31 08:33:00,56.7,55.3,30.11,SSW,205,0.0,1.0,95,0.00,,,0.00,58,Wunderground v.1.15,2013-07-31 15:33:00,
2013-07-31 08:38:00,56.7,55.3,30.11,SSW,205,0.0,1.0,95,0.00,,,0.00,60,Wunderground v.1.15,2013-07-31 15:38:00,
2013-07-31 08:43:00,56.9,55.5,30.11,SSW,205,0.0,1.0,95,0.00,,,0.00,42,Wunderground v.1.15,2013-07-31 15:43:00,
2013-07-31 08:48:00,56.9,55.5,30.11,SSW,205,0.0,1.0,95,0.00,,,0.00,39,Wunderground v.1.15,2013-07-31 15:48:00,
2013-07-31 08:53:00,56.9,55.5,30.11,SSW,205,0.0,1.0,95,0.00,,,0.00,39,Wunderground v.1.15,2013-07-31 15:53:00,
2013-07-31 08:58:00,56.9,55.5,30.11,SSW,202,1.0,1.0,95,0.00,,,0.00,67,Wunderground v.1.15,2013-07-31 15:58:00,
2013-07-31 09:03:00,56.9,55.5,30.11,SSW,202,0.0,1.0,95,0.00,,,0.00,84,Wunderground v.1.15,2013-07-31 16:03:00,
2013-07-31 09:08:00,57.0,55.6,30.11,SSW,202,0.0,1.0,95,0.00,,,0.00,88,Wunderground v.1.15,2013-07-31 16:08:00,
2013-07-31 09:13:00,57.0,55.6,30.11,SSW,202,0.0,0.0,95,0.00,,,0.00,69,Wunderground v.1.15,2013-07-31 16:13:00,
2013-07-31 09:18:00,57.2,55.8,30.10,SSW,202,0.0,1.0,95,0.00,,,0.00,72,Wunderground v.1.15,2013-07-31 16:18:00,
2013-07-31 09:23:00,57.3,55.9,30.10,SSW,202,0.0,1.0,95,0.00,,,0.00,88,Wunderground v.1.15,2013-07-31 16:23:00,
2013-07-31 09:28:00,57.3,55.9,30.10,SSW,202,0.0,1.0,95,0.00,,,0.00,97,Wunderground v.1.15,2013-07-31 16:28:00,
2013-07-31 09:33:00,57.3,55.9,30.10,SSW,202,0.0,0.0,95,0.00,,,0.00,104,Wunderground v.1.15,2013-07-31 16:33:00,
2013-07-31 09:38:00,57.5,56.1,30.10,SSW,202,0.0,0.0,95,0.00,,,0.00,141,Wunderground v.1.15,2013-07-31 16:38:00,
2013-07-31 09:43:00,57.6,56.2,30.10,SSW,202,1.0,1.0,95,0.00,,,0.00,105,Wunderground v.1.15,2013-07-31 16:43:00,
2013-07-31 09:48:00,57.8,56.4,30.10,SSW,202,0.0,1.0,95,0.00,,,0.00,123,Wunderground v.1.15,2013-07-31 16:48:00,
2013-07-31 09:53:00,57.8,56.4,30.10,SSW,202,1.0,1.0,95,0.00,,,0.00,98,Wunderground v.1.15,2013-07-31 16:53:00,
2013-07-31 09:58:00,58.0,56.6,30.10,SSW,202,0.0,1.0,95,0.00,,,0.00,95,Wunderground v.1.15,2013-07-31 16:58:00,
2013-07-31 10:03:00,58.0,56.6,30.10,SSW,202,0.0,0.0,95,0.00,,,0.00,93,Wunderground v.1.15,2013-07-31 17:03:00,
2013-07-31 10:08:00,58.0,56.6,30.10,SSW,202,0.0,1.0,95,0.00,,,0.00,98,Wunderground v.1.15,2013-07-31 17:08:00,
2013-07-31 10:13:00,58.0,56.6,30.10,SSW,202,0.0,2.0,95,0.00,,,0.00,111,Wunderground v.1.15,2013-07-31 17:13:00,
2013-07-31 10:18:00,58.0,56.6,30.10,SSW,202,0.0,2.0,95,0.00,,,0.00,121,Wunderground v.1.15,2013-07-31 17:18:00,
2013-07-31 10:23:00,58.1,56.7,30.10,SSW,202,0.0,0.0,95,0.00,,,0.00,118,Wunderground v.1.15,2013-07-31 17:23:00,
2013-07-31 10:28:00,58.1,56.4,30.10,SSW,202,0.0,1.0,94,0.00,,,0.00,105,Wunderground v.1.15,2013-07-31 17:28:00,
2013-07-31 10:33:00,58.1,56.4,30.09,SSW,202,0.0,1.0,94,0.00,,,0.00,142,Wunderground v.1.15,2013-07-31 17:33:00,
2013-07-31 10:38:00,58.1,56.4,30.09,SSW,202,1.0,1.0,94,0.00,,,0.00,185,Wunderground v.1.15,2013-07-31 17:38:00,
2013-07-31 10:43:00,58.3,56.6,30.09,SSW,202,0.0,1.0,94,0.00,,,0.00,190,Wunderground v.1.15,2013-07-31 17:43:00,
2013-07-31 10:48:00,58.6,56.9,30.09,SSW,202,0.0,1.0,94,0.00,,,0.00,155,Wunderground v.1.15,2013-07-31 17:48:00,
2013-07-31 10:53:00,58.7,57.0,30.09,SSW,202,0.0,1.0,94,0.00,,,0.00,102,Wunderground v.1.15,2013-07-31 17:53:00,
2013-07-31 10:58:00,58.6,56.6,30.09,SSW,202,0.0,1.0,93,0.00,,,0.00,100,Wunderground v.1.15,2013-07-31 17:58:00,
2013-07-31 11:03:00,58.7,56.7,30.08,SSW,202,0.0,1.0,93,0.00,,,0.00,111,Wunderground v.1.15,2013-07-31 18:03:00,
2013-07-31 11:08:00,58.7,56.7,30.08,SSW,202,0.0,1.0,93,0.00,,,0.00,105,Wunderground v.1.15,2013-07-31 18:08:00,
2013-07-31 11:13:00,58.7,56.7,30.08,SSW,202,0.0,0.0,93,0.00,,,0.00,123,Wunderground v.1.15,2013-07-31 18:13:00,
2013-07-31 11:18:00,58.7,56.7,30.08,SSW,202,0.0,0.0,93,0.00,,,0.00,144,Wunderground v.1.15,2013-07-31 18:18:00,
2013-07-31 11:23:00,58.7,56.7,30.08,SSW,202,0.0,1.0,93,0.00,,,0.00,171,Wunderground v.1.15,2013-07-31 18:23:00,
2013-07-31 11:28:00,58.7,56.7,30.08,SSW,202,0.0,1.0,93,0.00,,,0.00,214,Wunderground v.1.15,2013-07-31 18:28:00,
2013-07-31 11:33:00,58.9,56.9,30.08,SSW,202,0.0,1.0,93,0.00,,,0.00,234,Wunderground v.1.15,2013-07-31 18:33:00,
2013-07-31 11:38:00,59.0,57.0,30.08,SSW,202,0.0,1.0,93,0.00,,,0.00,276,Wunderground v.1.15,2013-07-31 18:38:00,
2013-07-31 11:43:00,59.5,57.5,30.08,SSW,202,0.0,1.0,93,0.00,,,0.00,190,Wunderground v.1.15,2013-07-31 18:43:00,
2013-07-31 11:48:00,59.6,57.3,30.08,SSW,202,0.0,1.0,92,0.00,,,0.00,155,Wunderground v.1.15,2013-07-31 18:48:00,
2013-07-31 11:53:00,59.8,57.5,30.08,SSW,202,1.0,1.0,92,0.00,,,0.00,278,Wunderground v.1.15,2013-07-31 18:53:00,
2013-07-31 11:58:00,59.9,57.6,30.08,SSW,202,1.0,1.0,92,0.00,,,0.00,225,Wunderground v.1.15,2013-07-31 18:58:00,
2013-07-31 11:59:00,59.9,57.6,30.08,SSW,202,1.0,2.0,92,0.00,,,0.00,225,Wunderground v.1.15,2013-07-31 18:59:00,
2013-07-31 12:03:00,60.1,57.8,30.08,SSW,202,1.0,2.0,92,0.00,,,0.00,155,Wunderground v.1.15,2013-07-31 19:03:00,
2013-07-31 12:09:00,60.2,57.6,30.08,SSW,202,0.0,2.0,91,0.00,,,0.00,220,Wunderground v.1.15,2013-07-31 19:09:00,
2013-07-31 12:14:00,60.2,57.3,30.08,SSW,202,1.0,2.0,90,0.00,,,0.00,276,Wunderground v.1.15,2013-07-31 19:14:00,
2013-07-31 12:19:00,60.2,57.3,30.08,SSW,202,0.0,2.0,90,0.00,,,0.00,258,Wunderground v.1.15,2013-07-31 19:19:00,
2013-07-31 12:24:00,60.4,57.5,30.08,SSW,202,1.0,2.0,90,0.00,,,0.00,294,Wunderground v.1.15,2013-07-31 19:24:00,
2013-07-31 12:29:00,60.4,57.5,30.08,SSW,202,0.0,2.0,90,0.00,,,0.00,295,Wunderground v.1.15,2013-07-31 19:29:00,
2013-07-31 12:34:00,60.7,57.7,30.07,SSW,202,0.0,1.0,90,0.00,,,0.00,311,Wunderground v.1.15,2013-07-31 19:34:00,
2013-07-31 12:39:00,60.7,57.4,30.07,SSW,202,0.0,2.0,89,0.00,,,0.00,323,Wunderground v.1.15,2013-07-31 19:39:00,
2013-07-31 12:44:00,61.2,57.9,30.07,SSW,202,1.0,1.0,89,0.00,,,0.00,385,Wunderground v.1.15,2013-07-31 19:44:00,
2013-07-31 12:49:00,61.5,58.2,30.07,SSW,202,1.0,2.0,89,0.00,,,0.00,466,Wunderground v.1.15,2013-07-31 19:49:00,
2013-07-31 12:54:00,61.8,58.2,30.07,SSW,202,2.0,2.0,88,0.00,,,0.00,512,Wunderground v.1.15,2013-07-31 19:54:00,
2013-07-31 12:59:00,61.8,57.9,30.07,SSW,202,2.0,2.0,87,0.00,,,0.00,512,Wunderground v.1.15,2013-07-31 19:59:00,
2013-07-31 13:04:00,62.1,58.2,30.06,SSW,202,0.0,2.0,87,0.00,,,0.00,677,Wunderground v.1.15,2013-07-31 20:04:00,
2013-07-31 13:09:00,62.3,58.1,30.06,SSW,202,2.0,3.0,86,0.00,,,0.00,628,Wunderground v.1.15,2013-07-31 20:09:00,
2013-07-31 13:14:00,62.6,58.4,30.06,SSW,202,1.0,2.0,86,0.00,,,0.00,733,Wunderground v.1.15,2013-07-31 20:14:00,
2013-07-31 13:19:00,63.1,58.5,30.06,SSW,202,2.0,2.0,85,0.00,,,0.00,652,Wunderground v.1.15,2013-07-31 20:19:00,
2013-07-31 13:24:00,63.2,58.3,30.06,SSW,202,2.0,2.0,84,0.00,,,0.00,598,Wunderground v.1.15,2013-07-31 20:24:00,
2013-07-31 13:29:00,63.1,58.2,30.06,SSW,202,2.0,2.0,84,0.00,,,0.00,554,Wunderground v.1.15,2013-07-31 20:29:00,
2013-07-31 13:34:00,63.1,58.2,30.06,SSW,202,1.0,3.0,84,0.00,,,0.00,513,Wunderground v.1.15,2013-07-31 20:34:00,
2013-07-31 13:39:00,62.9,58.0,30.06,SSW,202,1.0,3.0,84,0.00,,,0.00,455,Wunderground v.1.15,2013-07-31 20:39:00,
2013-07-31 13:44:00,63.1,58.2,30.06,SSW,202,0.0,3.0,84,0.00,,,0.00,290,Wunderground v.1.15,2013-07-31 20:44:00,
2013-07-31 13:49:00,63.1,58.2,30.06,SSW,202,0.0,3.0,84,0.00,,,0.00,295,Wunderground v.1.15,2013-07-31 20:49:00,
2013-07-31 13:54:00,62.9,57.7,30.06,SSW,202,0.0,1.0,83,0.00,,,0.00,336,Wunderground v.1.15,2013-07-31 20:54:00,
2013-07-31 13:59:00,62.9,57.7,30.06,SSW,202,0.0,1.0,83,0.00,,,0.00,397,Wunderground v.1.15,2013-07-31 20:59:00,
2013-07-31 14:04:00,62.9,58.0,30.05,SSW,202,0.0,1.0,84,0.00,,,0.00,452,Wunderground v.1.15,2013-07-31 21:04:00,
2013-07-31 14:09:00,63.1,58.2,30.05,SSW,202,0.0,1.0,84,0.00,,,0.00,566,Wunderground v.1.15,2013-07-31 21:09:00,
2013-07-31 14:14:00,63.5,58.6,30.05,SSW,202,0.0,2.0,84,0.00,,,0.00,654,Wunderground v.1.15,2013-07-31 21:14:00,
2013-07-31 14:19:00,63.9,59.0,30.05,SSW,202,1.0,2.0,84,0.00,,,0.00,631,Wunderground v.1.15,2013-07-31 21:19:00,
2013-07-31 14:24:00,64.3,59.4,30.05,SSW,202,0.0,2.0,84,0.00,,,0.00,684,Wunderground v.1.15,2013-07-31 21:24:00,
2013-07-31 14:29:00,65.0,59.4,30.05,SSW,202,1.0,2.0,82,0.00,,,0.00,719,Wunderground v.1.15,2013-07-31 21:29:00,
2013-07-31 14:34:00,65.3,59.0,30.05,SSW,202,0.0,1.0,80,0.00,,,0.00,659,Wunderground v.1.15,2013-07-31 21:34:00,
2013-07-31 14:39:00,65.3,59.0,30.05,SSW,202,1.0,2.0,80,0.00,,,0.00,756,Wunderground v.1.15,2013-07-31 21:39:00,
2013-07-31 14:44:00,65.6,58.9,30.05,SSW,202,0.0,1.0,79,0.00,,,0.00,647,Wunderground v.1.15,2013-07-31 21:44:00,
2013-07-31 14:49:00,65.5,58.8,30.05,SSW,202,0.0,1.0,79,0.00,,,0.00,504,Wunderground v.1.15,2013-07-31 21:49:00,
2013-07-31 14:54:00,65.3,58.6,30.05,ENE,71,1.0,2.0,79,0.00,,,0.00,397,Wunderground v.1.15,2013-07-31 21:54:00,
2013-07-31 14:59:00,65.6,59.3,30.05,ENE,71,0.0,2.0,80,0.00,,,0.00,754,Wunderground v.1.15,2013-07-31 21:59:00,
2013-07-31 15:04:00,66.0,59.3,30.04,ENE,71,1.0,1.0,79,0.00,,,0.00,522,Wunderground v.1.15,2013-07-31 22:04:00,
2013-07-31 15:09:00,66.0,58.9,30.04,ENE,71,0.0,1.0,78,0.00,,,0.00,369,Wunderground v.1.15,2013-07-31 22:09:00,
2013-07-31 15:14:00,66.0,58.6,30.04,ENE,76,1.0,3.0,77,0.00,,,0.00,325,Wunderground v.1.15,2013-07-31 22:14:00,
2013-07-31 15:19:00,65.8,58.7,30.04,NE,49,3.0,3.0,78,0.00,,,0.00,288,Wunderground v.1.15,2013-07-31 22:19:00,
2013-07-31 15:24:00,65.6,58.6,30.04,ENE,61,0.0,2.0,78,0.00,,,0.00,385,Wunderground v.1.15,2013-07-31 22:24:00,
2013-07-31 15:29:00,65.5,58.8,30.04,ENE,61,0.0,2.0,79,0.00,,,0.00,469,Wunderground v.1.15,2013-07-31 22:29:00,
2013-07-31 15:34:00,65.5,59.2,30.03,ENE,61,0.0,1.0,80,0.00,,,0.00,464,Wunderground v.1.15,2013-07-31 22:34:00,
2013-07-31 15:39:00,65.5,59.5,30.03,ENE,61,0.0,1.0,81,0.00,,,0.00,475,Wunderground v.1.15,2013-07-31 22:39:00,
2013-07-31 15:44:00,65.6,59.6,30.03,ENE,61,0.0,1.0,81,0.00,,,0.00,540,Wunderground v.1.15,2013-07-31 22:44:00,
2013-07-31 15:49:00,65.8,59.5,30.03,ENE,78,1.0,3.0,80,0.00,,,0.00,506,Wunderground v.1.15,2013-07-31 22:49:00,
2013-07-31 15:54:00,65.8,59.1,30.03,ENE,59,0.0,4.0,79,0.00,,,0.00,392,Wunderground v.1.15,2013-07-31 22:54:00,
2013-07-31 15:59:00,66.0,59.3,30.03,ENE,76,0.0,4.0,79,0.00,,,0.00,221,Wunderground v.1.15,2013-07-31 22:59:00,
2013-07-31 16:04:00,66.1,59.0,30.03,ENE,76,0.0,1.0,78,0.00,,,0.00,211,Wunderground v.1.15,2013-07-31 23:04:00,
2013-07-31 16:09:00,66.0,58.9,30.03,East,96,0.0,4.0,78,0.00,,,0.00,250,Wunderground v.1.15,2013-07-31 23:09:00,
2013-07-31 16:14:00,66.0,59.3,30.03,East,96,0.0,1.0,79,0.00,,,0.00,239,Wunderground v.1.15,2013-07-31 23:14:00,
2013-07-31 16:19:00,66.0,58.9,30.03,East,96,0.0,2.0,78,0.00,,,0.00,225,Wunderground v.1.15,2013-07-31 23:19:00,
2013-07-31 16:24:00,66.0,58.9,30.03,East,96,0.0,1.0,78,0.00,,,0.00,221,Wunderground v.1.15,2013-07-31 23:24:00,
2013-07-31 16:29:00,66.1,59.7,30.03,ENE,73,0.0,1.0,80,0.00,,,0.00,223,Wunderground v.1.15,2013-07-31 23:29:00,
2013-07-31 16:34:00,66.1,59.4,30.02,ENE,72,0.0,4.0,79,0.00,,,0.00,223,Wunderground v.1.15,2013-07-31 23:34:00,
2013-07-31 16:39:00,66.1,59.7,30.02,SSE,150,1.0,4.0,80,0.00,,,0.00,214,Wunderground v.1.15,2013-07-31 23:39:00,
2013-07-31 16:44:00,66.0,59.7,30.02,SSE,148,0.0,2.0,80,0.00,,,0.00,202,Wunderground v.1.15,2013-07-31 23:44:00,
2013-07-31 16:49:00,66.0,59.3,30.02,SE,131,0.0,4.0,79,0.00,,,0.00,190,Wunderground v.1.15,2013-07-31 23:49:00,
2013-07-31 16:54:00,66.0,58.9,30.02,East,101,0.0,2.0,78,0.00,,,0.00,179,Wunderground v.1.15,2013-07-31 23:54:00,
2013-07-31 16:59:00,66.1,59.0,30.02,SE,125,0.0,2.0,78,0.00,,,0.00,176,Wunderground v.1.15,2013-07-31 23:59:00,
2013-07-31 17:04:00,66.3,59.2,30.03,SE,125,1.0,2.0,78,0.00,,,0.00,181,Wunderground v.1.15,2013-08-01 00:04:00,
2013-07-31 17:09:00,66.4,59.3,30.03,SE,137,0.0,4.0,78,0.00,,,0.00,188,Wunderground v.1.15,2013-08-01 00:09:00,
2013-07-31 17:14:00,66.4,59.0,30.03,SW,216,1.0,5.0,77,0.00,,,0.00,193,Wunderground v.1.15,2013-08-01 00:14:00,
2013-07-31 17:19:00,66.4,59.0,30.03,SSE,153,0.0,5.0,77,0.00,,,0.00,176,Wunderground v.1.15,2013-08-01 00:19:00,
2013-07-31 17:24:00,66.6,58.8,30.03,South,173,0.0,4.0,76,0.00,,,0.00,151,Wunderground v.1.15,2013-08-01 00:24:00,
2013-07-31 17:29:00,66.8,59.4,30.03,South,173,0.0,4.0,77,0.00,,,0.00,123,Wunderground v.1.15,2013-08-01 00:29:00,
2013-07-31 17:34:00,66.6,58.8,30.03,East,96,1.0,5.0,76,0.00,,,0.00,100,Wunderground v.1.15,2013-08-01 00:34:00,
2013-07-31 17:39:00,66.6,58.4,30.03,East,96,0.0,5.0,75,0.00,,,0.00,90,Wunderground v.1.15,2013-08-01 00:39:00,
2013-07-31 17:44:00,66.3,58.5,30.03,East,96,0.0,1.0,76,0.00,,,0.00,90,Wunderground v.1.15,2013-08-01 00:44:00,
2013-07-31 17:49:00,66.0,58.6,30.03,East,96,0.0,1.0,77,0.00,,,0.00,102,Wunderground v.1.15,2013-08-01 00:49:00,
2013-07-31 17:54:00,65.8,58.4,30.03,SW,218,0.0,4.0,77,0.00,,,0.00,114,Wunderground v.1.15,2013-08-01 00:54:00,
2013-07-31 17:59:00,65.6,58.6,30.03,SW,218,0.0,4.0,78,0.00,,,0.00,116,Wunderground v.1.15,2013-08-01 00:59:00,
2013-07-31 18:04:00,65.6,58.9,30.01,SW,218,0.0,1.0,79,0.00,,,0.00,113,Wunderground v.1.15,2013-08-01 01:04:00,
2013-07-31 18:09:00,65.6,58.9,30.01,SW,218,0.0,1.0,79,0.00,,,0.00,100,Wunderground v.1.15,2013-08-01 01:09:00,
2013-07-31 18:14:00,65.6,59.3,30.01,SW,218,0.0,0.0,80,0.00,,,0.00,86,Wunderground v.1.15,2013-08-01 01:14:00,
2013-07-31 18:19:00,65.8,59.8,30.00,SW,218,0.0,0.0,81,0.00,,,0.00,81,Wunderground v.1.15,2013-08-01 01:19:00,
2013-07-31 18:24:00,66.0,59.7,30.00,SSW,211,0.0,1.0,80,0.00,,,0.00,83,Wunderground v.1.15,2013-08-01 01:24:00,
2013-07-31 18:29:00,66.0,59.7,30.00,SSW,211,0.0,1.0,80,0.00,,,0.00,84,Wunderground v.1.15,2013-08-01 01:29:00,
2013-07-31 18:34:00,66.1,59.7,30.00,SSW,211,0.0,0.0,80,0.00,,,0.00,88,Wunderground v.1.15,2013-08-01 01:34:00,
2013-07-31 18:39:00,66.3,59.6,30.00,SSW,208,0.0,1.0,79,0.00,,,0.00,86,Wunderground v.1.15,2013-08-01 01:39:00,
2013-07-31 18:44:00,66.4,59.7,30.00,SSW,206,0.0,1.0,79,0.00,,,0.00,90,Wunderground v.1.15,2013-08-01 01:44:00,
2013-07-31 18:49:00,66.4,59.7,30.00,SSW,206,0.0,1.0,79,0.00,,,0.00,81,Wunderground v.1.15,2013-08-01 01:49:00,
2013-07-31 18:54:00,66.4,59.7,30.00,SSW,206,0.0,0.0,79,0.00,,,0.00,65,Wunderground v.1.15,2013-08-01 01:54:00,
2013-07-31 18:59:00,66.4,59.0,30.00,SSW,206,0.0,0.0,77,0.00,,,0.00,51,Wunderground v.1.15,2013-08-01 01:59:00,
2013-07-31 19:04:00,66.3,58.9,29.99,SSW,206,0.0,1.0,77,0.00,,,0.00,40,Wunderground v.1.15,2013-08-01 02:04:00,
2013-07-31 19:09:00,66.0,58.6,29.99,SSW,206,0.0,1.0,77,0.00,,,0.00,32,Wunderground v.1.15,2013-08-01 02:09:00,
2013-07-31 19:14:00,65.5,58.1,29.99,SSW,206,0.0,1.0,77,0.00,,,0.00,32,Wunderground v.1.15,2013-08-01 02:14:00,
2013-07-31 19:19:00,64.8,57.4,29.99,SSW,206,0.0,1.0,77,0.00,,,0.00,37,Wunderground v.1.15,2013-08-01 02:19:00,
2013-07-31 19:24:00,64.3,57.3,29.99,SSW,206,0.0,0.0,78,0.00,,,0.00,32,Wunderground v.1.15,2013-08-01 02:24:00,
2013-07-31 19:29:00,64.0,57.0,29.99,SSW,206,0.0,0.0,78,0.00,,,0.00,25,Wunderground v.1.15,2013-08-01 02:29:00,
2013-07-31 19:34:00,63.7,56.7,29.99,SSW,206,1.0,2.0,78,0.00,,,0.00,25,Wunderground v.1.15,2013-08-01 02:34:00,
2013-07-31 19:39:00,63.4,56.8,29.99,SSW,206,0.0,2.0,79,0.00,,,0.00,25,Wunderground v.1.15,2013-08-01 02:39:00,
2013-07-31 19:44:00,63.1,56.8,29.99,SSW,206,0.0,2.0,80,0.00,,,0.00,26,Wunderground v.1.15,2013-08-01 02:44:00,
2013-07-31 19:49:00,62.9,57.0,29.99,SSW,206,0.0,2.0,81,0.00,,,0.00,30,Wunderground v.1.15,2013-08-01 02:49:00,
2013-07-31 19:54:00,62.6,57.0,29.99,SSW,206,1.0,2.0,82,0.00,,,0.00,33,Wunderground v.1.15,2013-08-01 02:54:00,
2013-07-31 19:59:00,62.4,56.8,29.99,SSW,206,1.0,2.0,82,0.00,,,0.00,35,Wunderground v.1.15,2013-08-01 02:59:00,
2013-07-31 20:04:00,62.4,57.2,29.99,SSW,206,0.0,2.0,83,0.00,,,0.00,30,Wunderground v.1.15,2013-08-01 03:04:00,
2013-07-31 20:09:00,62.3,57.1,29.99,SSW,206,0.0,2.0,83,0.00,,,0.00,25,Wunderground v.1.15,2013-08-01 03:09:00,
2013-07-31 20:14:00,62.3,57.4,29.99,SSW,206,0.0,1.0,84,0.00,,,0.00,25,Wunderground v.1.15,2013-08-01 03:14:00,
2013-07-31 20:19:00,62.3,57.4,29.99,SSW,206,1.0,1.0,84,0.00,,,0.00,21,Wunderground v.1.15,2013-08-01 03:19:00,
2013-07-31 20:24:00,62.1,57.2,29.99,SSW,206,1.0,2.0,84,0.00,,,0.00,16,Wunderground v.1.15,2013-08-01 03:24:00,
2013-07-31 20:29:00,62.1,57.5,29.99,SSW,206,0.0,2.0,85,0.00,,,0.00,9,Wunderground v.1.15,2013-08-01 03:29:00,
2013-07-31 20:35:00,62.1,57.5,29.99,SSW,206,0.0,1.0,85,0.00,,,0.00,5,Wunderground v.1.15,2013-08-01 03:35:00,
2013-07-31 20:40:00,62.1,57.5,29.99,SSW,206,0.0,1.0,85,0.00,,,0.00,0,Wunderground v.1.15,2013-08-01 03:40:00,
2013-07-31 20:45:00,62.0,57.4,29.99,SSW,206,0.0,1.0,85,0.00,,,0.00,0,Wunderground v.1.15,2013-08-01 03:45:00,
2013-07-31 20:50:00,62.0,57.8,29.99,SSW,206,0.0,1.0,86,0.00,,,0.00,0,Wunderground v.1.15,2013-08-01 03:50:00,
2013-07-31 20:55:00,62.0,57.8,29.99,SSW,206,2.0,2.0,86,0.00,,,0.00,0,Wunderground v.1.15,2013-08-01 03:55:00,
2013-07-31 21:00:00,61.8,57.6,29.99,SSW,206,0.0,3.0,86,0.00,,,0.00,0,Wunderground v.1.15,2013-08-01 04:00:00,
2013-07-31 21:01:00,61.8,57.6,29.99,SSW,206,0.0,1.0,86,0.00,,,0.00,0,Wunderground v.1.15,2013-08-01 04:01:00,
2013-07-31 21:02:00,61.8,57.6,29.99,SSW,206,0.0,1.0,86,0.00,,,0.00,0,Wunderground v.1.15,2013-08-01 04:02:00,
2013-07-31 21:07:00,61.8,57.6,29.99,SSW,206,1.0,2.0,86,0.00,,,0.00,0,Wunderground v.1.15,2013-08-01 04:07:00,
2013-07-31 21:12:00,61.6,57.4,29.99,SSW,206,1.0,2.0,86,0.00,,,0.00,0,Wunderground v.1.15,2013-08-01 04:12:00,
2013-07-31 21:17:00,61.6,57.7,29.99,SSW,207,2.0,3.0,87,0.00,,,0.00,0,Wunderground v.1.15,2013-08-01 04:17:00,
2013-07-31 21:22:00,61.5,57.6,29.99,SSW,207,2.0,2.0,87,0.00,,,0.00,0,Wunderground v.1.15,2013-08-01 04:22:00,
2013-07-31 21:27:00,61.5,57.6,29.99,SSW,207,1.0,3.0,87,0.00,,,0.00,0,Wunderground v.1.15,2013-08-01 04:27:00,
2013-07-31 21:32:00,61.5,57.6,29.98,SSW,207,0.0,3.0,87,0.00,,,0.00,0,Wunderground v.1.15,2013-08-01 04:32:00,
2013-07-31 21:37:00,61.3,57.4,29.98,SSW,207,0.0,3.0,87,0.00,,,0.00,0,Wunderground v.1.15,2013-08-01 04:37:00,
2013-07-31 21:42:00,61.3,57.4,29.98,SSW,207,0.0,1.0,87,0.00,,,0.00,0,Wunderground v.1.15,2013-08-01 04:42:00,
2013-07-31 21:47:00,61.3,57.7,29.99,SSW,207,0.0,1.0,88,0.00,,,0.00,0,Wunderground v.1.15,2013-08-01 04:47:00,
2013-07-31 21:52:00,61.3,57.7,29.99,SSW,207,0.0,0.0,88,0.00,,,0.00,0,Wunderground v.1.15,2013-08-01 04:52:00,
2013-07-31 21:57:00,61.3,57.7,29.99,SSW,207,0.0,1.0,88,0.00,,,0.00,0,Wunderground v.1.15,2013-08-01 04:57:00,
2013-07-31 22:02:00,61.3,57.7,29.99,SSW,207,0.0,0.0,88,0.00,,,0.00,0,Wunderground v.1.15,2013-08-01 05:02:00,
2013-07-31 22:07:00,61.3,57.7,29.99,SSW,207,0.0,1.0,88,0.00,,,0.00,0,Wunderground v.1.15,2013-08-01 05:07:00,
2013-07-31 22:12:00,61.2,57.6,29.99,SW,219,0.0,2.0,88,0.00,,,0.00,0,Wunderground v.1.15,2013-08-01 05:12:00,
2013-07-31 22:17:00,61.0,57.4,30.00,SW,228,2.0,2.0,88,0.00,,,0.00,0,Wunderground v.1.15,2013-08-01 05:17:00,
2013-07-31 22:22:00,60.9,57.3,30.00,WSW,242,0.0,2.0,88,0.00,,,0.00,0,Wunderground v.1.15,2013-08-01 05:22:00,
2013-07-31 22:27:00,60.7,57.1,30.00,WSW,242,0.0,2.0,88,0.00,,,0.00,0,Wunderground v.1.15,2013-08-01 05:27:00,
2013-07-31 22:33:00,60.5,56.9,30.01,WNW,284,0.0,0.0,88,0.00,,,0.00,0,Wunderground v.1.15,2013-08-01 05:33:00,
2013-07-31 22:38:00,60.4,56.8,30.01,WNW,284,0.0,1.0,88,0.00,,,0.00,0,Wunderground v.1.15,2013-08-01 05:38:00,
2013-07-31 22:43:00,60.2,56.6,30.01,WNW,284,0.0,1.0,88,0.00,,,0.00,0,Wunderground v.1.15,2013-08-01 05:43:00,
2013-07-31 22:48:00,60.1,56.5,30.01,WNW,284,1.0,2.0,88,0.00,,,0.00,0,Wunderground v.1.15,2013-08-01 05:48:00,
2013-07-31 22:53:00,59.9,56.3,30.01,WNW,284,0.0,1.0,88,0.00,,,0.00,0,Wunderground v.1.15,2013-08-01 05:53:00,
2013-07-31 22:58:00,59.8,56.2,30.01,WNW,284,0.0,1.0,88,0.00,,,0.00,0,Wunderground v.1.15,2013-08-01 05:58:00,
2013-07-31 23:03:00,59.8,56.6,30.01,WNW,284,0.0,0.0,89,0.00,,,0.00,0,Wunderground v.1.15,2013-08-01 06:03:00,
2013-07-31 23:08:00,59.6,56.4,30.01,WNW,284,0.0,1.0,89,0.00,,,0.00,0,Wunderground v.1.15,2013-08-01 06:08:00,
2013-07-31 23:13:00,59.5,56.3,30.01,WNW,284,0.0,0.0,89,0.00,,,0.00,0,Wunderground v.1.15,2013-08-01 06:13:00,
2013-07-31 23:18:00,59.5,56.3,30.02,WNW,284,0.0,2.0,89,0.00,,,0.00,0,Wunderground v.1.15,2013-08-01 06:18:00,
2013-07-31 23:23:00,59.5,56.6,30.02,WNW,284,0.0,1.0,90,0.00,,,0.00,0,Wunderground v.1.15,2013-08-01 06:23:00,
2013-07-31 23:28:00,59.3,56.4,30.02,WNW,284,0.0,1.0,90,0.00,,,0.00,0,Wunderground v.1.15,2013-08-01 06:28:00,
2013-07-31 23:33:00,59.3,56.4,30.02,WNW,284,0.0,0.0,90,0.00,,,0.00,0,Wunderground v.1.15,2013-08-01 06:33:00,
2013-07-31 23:38:00,59.3,56.4,30.02,WNW,284,0.0,0.0,90,0.00,,,0.00,0,Wunderground v.1.15,2013-08-01 06:38:00,
2013-07-31 23:43:00,59.2,56.3,30.02,WNW,284,0.0,0.0,90,0.00,,,0.00,0,Wunderground v.1.15,2013-08-01 06:43:00,
2013-07-31 23:48:00,59.2,56.3,30.02,WNW,284,0.0,0.0,90,0.00,,,0.00,0,Wunderground v.1.15,2013-08-01 06:48:00,
2013-07-31 23:53:00,59.2,56.3,30.02,WNW,284,0.0,0.0,90,0.00,,,0.00,0,Wunderground v.1.15,2013-08-01 06:53:00,
2013-07-31 23:58:00,59.0,56.1,30.02,WNW,284,0.0,0.0,90,0.00,,,0.00,0,Wunderground v.1.15,2013-08-01 06:58:00,